CDT,Max TemperatureF,Mean TemperatureF,Min TemperatureF,Max Dew PointF,MeanDew PointF,Min DewpointF,Max Humidity, Mean Humidity, Min Humidity, Max Sea Level PressureIn, Mean Sea Level PressureIn, Min Sea Level PressureIn, Max VisibilityMiles, Mean VisibilityMiles, Min VisibilityMiles, Max Wind SpeedMPH, Mean Wind SpeedMPH, Max Gust SpeedMPH,PrecipitationIn, CloudCover, Events, WindDirDegrees
2011-10-1,77,56,37,40,34,28,96,54,17,30.30,30.24,30.19,10,10,10,8,1,,0.00,0,,125
2011-10-2,81,62,42,41,36,31,79,44,16,30.26,30.19,30.11,10,10,10,12,2,17,0.00,0,,180
2011-10-3,87,68,48,45,42,39,77,43,21,30.16,30.11,30.05,10,10,10,17,4,25,0.00,0,,164
2011-10-4,91,78,64,45,43,41,43,33,18,30.14,30.09,30.03,10,10,10,17,7,23,0.00,0,,192
2011-10-5,86,68,53,43,40,37,61,35,19,30.09,30.03,29.96,10,10,10,21,7,29,0.00,0,,177
2011-10-6,84,74,64,50,44,40,48,37,22,29.98,29.91,29.83,10,10,7,28,15,41,0.00,1,,167
2011-10-7,84,76,68,61,55,48,56,49,43,29.97,29.92,29.86,10,10,10,28,19,39,0.00,2,,175
2011-10-8,78,70,63,63,57,49,97,70,42,30.09,30.02,29.94,10,10,4,24,11,36,0.16,5,Rain,187
2011-10-9,80,70,59,63,59,56,100,87,43,30.09,30.06,29.99,10,7,0,21,5,33,0.46,5,Fog-Rain,173
2011-10-10,70,62,53,59,56,52,100,86,57,30.08,30.02,29.95,10,10,5,7,2,,0.43,5,Rain,210
2011-10-11,78,63,48,57,53,48,100,76,36,29.96,29.87,29.75,10,9,2,16,3,23,0.01,3,,177
2011-10-12,77,64,54,59,55,46,100,77,42,29.86,29.73,29.68,10,9,1,12,4,25,0.98,4,Rain-Thunderstorm,275
2011-10-13,75,60,46,45,41,33,86,55,22,29.94,29.87,29.82,10,10,10,9,4,22,0.00,0,,282
2011-10-14,70,56,43,47,39,30,93,64,24,30.10,30.00,29.89,10,10,10,12,2,20,0.00,0,,327
2011-10-15,77,56,37,50,41,35,97,62,28,30.13,30.00,29.82,10,10,10,15,5,25,0.00,0,,215
2011-10-16,68,56,45,53,44,36,86,56,37,30.05,29.95,29.75,10,10,10,17,10,24,0.00,0,,357
2011-10-17,60,51,42,42,38,32,93,67,35,30.08,30.01,29.91,10,10,10,18,5,21,0.02,4,Rain,24
2011-10-18,57,48,41,42,33,24,96,62,31,30.12,30.09,30.06,10,10,10,16,7,29,0.06,1,Rain,330
2011-10-19,54,43,32,29,23,15,82,51,22,30.16,30.11,30.06,10,10,10,16,4,26,0.00,0,,353
2011-10-20,57,40,23,33,27,21,96,68,36,30.16,30.10,30.05,10,10,10,7,2,,0.00,0,,297
2011-10-21,73,52,30,41,35,28,96,67,27,30.17,30.11,30.05,10,10,10,8,1,,0.00,0,,227
2011-10-22,71,54,37,45,41,37,100,72,32,30.14,30.07,30.00,10,10,10,12,1,,0.00,1,,73
2011-10-23,80,58,37,50,41,36,100,63,24,30.05,29.99,29.91,10,10,9,17,2,21,0.00,0,,230
2011-10-24,84,60,36,50,41,35,97,54,19,30.14,30.01,29.87,10,10,10,20,6,31,0.00,0,,188
2011-10-25,79,68,54,54,46,38,68,48,24,29.97,29.79,29.69,10,10,10,24,16,36,0.00,0,,245
2011-10-26,60,52,45,41,38,36,86,63,48,30.14,30.07,29.97,10,10,10,17,10,24,0.00,5,Rain,13
2011-10-27,55,44,32,38,31,24,86,63,30,30.22,30.17,30.13,10,10,10,7,2,,0.00,1,,334
2011-10-28,62,44,26,32,27,24,96,64,24,30.27,30.23,30.19,10,10,10,12,2,18,0.00,0,,299
2011-10-29,70,48,28,33,27,25,89,50,19,30.20,30.03,29.88,10,10,10,21,6,30,0.00,0,,208
2011-10-30,63,50,35,37,28,17,76,46,18,30.13,30.06,29.87,10,10,10,17,8,21,0.00,0,,289
2011-10-31,73,50,28,42,31,26,92,58,20,30.13,30.04,29.94,10,10,10,13,2,,0.00,0,,198